Weather History for Driggs, ID

Change the Weather History Date:

Tuesday, December 6, 2011

  Actual Average (KRXE) Record (KRXE)
Temperature  
Mean Temperature 2 °F 22 °F  
Max Temperature 14 °F 30 °F 48 °F (2014)
Min Temperature -9 °F 14 °F -9 °F (2013)
Degree Days  
Heating Degree Days 62 43  
Month to date heating degree days 253  
Since 1 July heating degree days 2265  
Cooling Degree Days 0 0  
Month to date cooling degree days 0  
Year to date cooling degree days 208  
Moisture  
Dew Point -6 °F    
Average Humidity 76    
Maximum Humidity 84    
Minimum Humidity 56    
Precipitation  
Precipitation 0.00 in 0.02 in 0.46 in (1982)
Month to date precipitation 0.16  
Year to date precipitation 12.19  
Sea Level Pressure  
Sea Level Pressure 30.62 in    
Wind  
Wind Speed 3 mph (ESE)    
Max Wind Speed 7 mph    
Max Gust Speed -    
Visibility 10 miles    
Events      
T = Trace of Precipitation, MM = Missing Value Source: NWS Daily Summary

Daily Weather History Graph

Daily Weather History Graph

Search for Another Location

Airport:

Trip Planner

Search our weather history database for the weather conditions in past years. The results will help you decide how hot, cold, wet, or windy it might be!

Date:

Astronomy

Dec. 06, 2011 Rise Set
Actual Time 7:43 AM MST 4:47 PM MST
Civil Twilight 7:10 AM MST 5:19 PM MST
Nautical Twilight 6:34 AM MST 5:55 PM MST
Astronomical Twilight 5:59 AM MST 6:30 PM MST
Moon 2:20 PM MST (12/6) 4:00 AM MST (12/6)
Length of Visible Light 10h 09m
Length of Day
9h 04m
Waxing Gibbous, 87% of the Moon is Illuminated
Dec 6
Waxing Gibbous
Dec 10
Full
Dec 17
Last Quarter
Dec 24
New
Dec 31
First Quarter

Hourly Weather History & Observations

Time (MST) Temp. Windchill Dew Point Humidity Pressure Visibility Wind Dir Wind Speed Gust Speed Precip Events Conditions
12:56 AM -4.9 °F -13.4 °F -9.9 °F 79% 30.58 in 10.0 mi SSE 3.5 mph - N/A   Clear
1:56 AM -4.9 °F -15.6 °F -10.8 °F 76% 30.54 in 10.0 mi SE 4.6 mph - N/A   Clear
2:56 AM -8.9 °F - -13.9 °F 79% 30.57 in 10.0 mi Calm Calm - N/A   Clear
3:56 AM -9.9 °F - -15.0 °F 78% 30.57 in 10.0 mi Calm Calm - N/A   Clear
4:56 AM -8.0 °F - -13.9 °F 75% 30.61 in 10.0 mi Calm Calm - N/A   Clear
5:56 AM -4.0 °F -14.6 °F -8.9 °F 80% 30.61 in 10.0 mi SE 4.6 mph - N/A   Clear
6:56 AM -4.0 °F - -8.9 °F 80% 30.63 in 10.0 mi Calm Calm - N/A   Clear
7:56 AM -4.9 °F -18.8 °F -9.9 °F 79% 30.64 in 10.0 mi ENE 6.9 mph - N/A   Clear
8:56 AM -2.9 °F -13.3 °F -8.0 °F 79% 30.65 in 10.0 mi East 4.6 mph - N/A   Clear
9:56 AM 5.0 °F - -4.0 °F 66% 30.63 in 10.0 mi Calm Calm - N/A   Clear
10:56 AM 12.0 °F 5.9 °F 0.1 °F 59% 30.60 in 10.0 mi NNE 3.5 mph - N/A   Clear
12:56 PM 12.0 °F - 2.1 °F 65% 30.57 in 10.0 mi Calm Calm - N/A   Clear
2:56 PM 13.1 °F 7.1 °F 3.0 °F 64% 30.59 in 10.0 mi NNW 3.5 mph - N/A   Clear
3:56 PM 14.0 °F - 1.0 °F 56% 30.59 in 10.0 mi Calm Calm - N/A   Clear
4:56 PM 6.1 °F -0.9 °F -0.9 °F 73% 30.65 in 10.0 mi SE 3.5 mph - N/A   Clear
5:56 PM 3.0 °F -6.4 °F -1.8 °F 80% 30.66 in 10.0 mi SSE 4.6 mph - N/A   Clear
6:56 PM 1.0 °F -6.7 °F -2.9 °F 83% 30.66 in 10.0 mi SE 3.5 mph - N/A   Clear
7:56 PM -1.8 °F -13.7 °F -6.0 °F 83% 30.71 in 10.0 mi ENE 5.8 mph - N/A   Clear
8:56 PM 4.1 °F -3.2 °F 0.1 °F 84% 30.65 in 10.0 mi WSW 3.5 mph - N/A   Clear
9:56 PM 0.1 °F -7.7 °F -4.0 °F 83% 30.63 in 10.0 mi ESE 3.5 mph - N/A   Clear
10:56 PM -1.8 °F -9.9 °F -6.0 °F 83% 30.62 in 10.0 mi NNW 3.5 mph - N/A   Clear
11:56 PM -0.9 °F -8.9 °F -4.9 °F 83% 30.60 in 10.0 mi ESE 3.5 mph - N/A   Clear